GW4082 Weather Reports


Display with metric or nautical units.
time (UTC)temp
F
wind
direction
speed
MPH
gust
MPH
rain 1hr
in
rain 24hr
in
rain mn
in
humidity
%
barometer
mb
20260509222737 60 344 4.0 10.0 0.00 0.33 0.33 86 1007.7
20260509222232 61 318 2.0 5.0 0.00 0.33 0.33 86 1007.7
20260509221728 60 279 6.0 10.0 0.00 0.33 0.33 85 1007.8
20260509221224 60 314 1.0 5.0 0.00 0.33 0.33 86 1007.8
20260509220720 61 332 2.0 12.0 0.00 0.33 0.33 85 1008.0
20260509220218 62 255 5.0 10.0 0.00 0.33 0.33 83 1008.0
20260509215713 62 304 6.0 10.0 0.00 0.33 0.33 83 1008.0
20260509215210 62 294 2.0 10.0 0.00 0.33 0.33 85 1007.9
20260509214707 61 269 5.0 12.0 0.00 0.33 0.33 84 1008.1
20260509214204 61 209 6.0 7.0 0.00 0.33 0.33 85 1008.2
20260509213700 60 322 3.0 7.0 0.00 0.33 0.33 85 1008.2
20260509213156 61 255 5.0 10.0 0.00 0.33 0.33 85 1008.2
20260509212654 61 310 2.0 10.0 0.00 0.33 0.33 87 1008.4
20260509212150 62 296 9.0 12.0 0.00 0.33 0.33 84 1008.2
20260509211646 63 270 7.0 10.0 0.00 0.33 0.33 82 1008.1
20260509211143 62 315 2.0 7.0 0.00 0.33 0.33 86 1008.1
20260509210640 62 319 2.0 7.0 0.00 0.33 0.33 85 1008.0
20260509210137 62 272 7.0 7.0 0.00 0.33 0.33 85 1008.1
20260509205632 61 282 8.0 12.0 0.00 0.33 0.33 88 1008.1
20260509205126 60 284 3.0 5.0 0.00 0.33 0.33 87 1008.2
20260509204623 59 325 3.0 7.0 0.00 0.33 0.33 91 1008.2
20260509204120 58 279 4.0 10.0 0.00 0.33 0.33 91 1008.4
20260509203616 58 241 8.0 10.0 0.00 0.33 0.33 91 1008.5
20260509203114 58 264 3.0 5.0 0.00 0.33 0.33 93 1008.5
20260509202609 58 306 2.0 7.0 0.00 0.33 0.33 93 1008.5
20260509202105 58 306 2.0 7.0 0.00 0.33 0.33 93 1008.3
20260509201604 58 259 4.0 7.0 0.00 0.33 0.33 93 1008.4
20260509201103 58 222 3.0 5.0 0.00 0.33 0.33 94 1008.5
20260509200602 57 278 3.0 7.0 0.00 0.33 0.33 94 1008.8
20260509200059 57 314 2.0 5.0 0.00 0.33 0.33 94 1008.5
20260509195554 57 257 4.0 7.0 0.00 0.33 0.33 93 1008.7
20260509195049 57 301 2.0 10.0 0.00 0.33 0.33 93 1008.9
20260509194549 57 304 2.0 2.0 0.00 0.33 0.33 94 1008.7
20260509194047 57 312 1.0 7.0 0.00 0.33 0.33 94 1009.0
20260509193542 57 267 4.0 7.0 0.00 0.33 0.33 94 1008.8
20260509193039 57 273 5.0 5.0 0.00 0.33 0.33 94 1008.9
20260509192536 56 60 4.0 7.0 0.00 0.33 0.33 94 1009.0
20260509192031 56 277 5.0 15.0 0.00 0.33 0.33 94 1009.4
20260509191531 56 258 6.0 12.0 0.00 0.33 0.33 94 1009.2
20260509191026 56 216 6.0 10.0 0.00 0.33 0.33 95 1008.9
20260509190524 57 314 1.0 5.0 0.00 0.33 0.33 97 1009.0
20260509190022 56 255 4.0 7.0 0.00 0.33 0.33 97 1009.2
20260509185519 56 265 5.0 7.0 0.00 0.33 0.33 97 1009.0
20260509185015 56 310 4.0 10.0 0.00 0.33 0.33 98 1009.0
20260509184514 55 299 3.0 5.0 0.07 0.33 0.33 98 1009.1
20260509184009 55 273 2.0 5.0 0.07 0.33 0.33 99 1009.0
20260509183505 55 273 6.0 12.0 0.00 0.32 0.32 99 1009.2
20260509183001 55 261 4.0 7.0 0.07 0.32 0.32 99 1009.2
20260509182457 55 287 5.0 7.0 0.07 0.32 0.32 99 1009.2
20260509181954 55 308 3.0 5.0 0.00 0.30 0.30 99 1009.1
20260509181453 55 307 0.0 0.0 0.05 0.30 0.30 99 1009.2
20260509180950 54 310 0.0 2.0 0.12 0.30 0.30 99 1009.3
20260509180445 54 330 0.0 5.0 0.07 0.29 0.29 99 1009.4
20260509175942 54 267 2.0 7.0 0.07 0.28 0.28 99 1009.6
20260509175433 54 266 4.0 5.0 0.14 0.28 0.28 99 1009.4
20260509174929 54 280 3.0 5.0 0.12 0.27 0.27 99 1009.5
20260509174426 54 285 4.0 5.0 0.05 0.26 0.26 99 1009.4
20260509173922 54 254 3.0 10.0 0.07 0.25 0.25 98 1009.3
20260509173421 54 271 3.0 5.0 0.14 0.25 0.25 99 1009.4
20260509172918 54 322 2.0 7.0 0.07 0.24 0.24 98 1009.5
20260509172415 54 309 3.0 5.0 0.07 0.23 0.23 98 1009.5
20260509171911 54 283 2.0 10.0 0.07 0.23 0.23 98 1009.3
20260509171407 54 289 5.0 7.0 0.05 0.22 0.22 98 1009.4
20260509170903 54 294 4.0 5.0 0.05 0.22 0.22 98 1009.2
20260509170359 54 306 2.0 5.0 0.07 0.21 0.21 98 1009.2
20260509165855 54 238 8.0 15.0 0.07 0.21 0.21 98 1009.4
20260509165349 54 300 3.0 12.0 0.00 0.20 0.20 98 1009.3
20260509164844 54 278 4.0 7.0 0.07 0.20 0.20 98 1009.2
20260509164340 54 315 2.0 7.0 0.07 0.20 0.20 98 1009.4
20260509163837 54 322 4.0 10.0 0.07 0.18 0.18 98 1009.5
20260509163334 54 301 0.0 7.0 0.07 0.18 0.18 98 1009.5
20260509162833 54 310 1.0 7.0 0.00 0.17 0.17 98 1009.5
20260509162331 54 294 3.0 7.0 0.05 0.17 0.17 98 1009.5
20260509161828 54 245 2.0 2.0 0.07 0.17 0.17 98 1009.6
20260509161325 54 306 0.0 5.0 0.07 0.17 0.17 98 1009.7
20260509160820 54 330 0.0 5.0 0.07 0.15 0.15 98 1009.6
20260509160316 54 285 2.0 2.0 0.14 0.15 0.15 98 1009.7
20260509155812 54 334 3.0 7.0 0.12 0.14 0.14 98 1009.6
20260509155308 54 293 1.0 2.0 0.05 0.13 0.13 98 1009.6
20260509154804 54 281 0.0 5.0 0.07 0.12 0.12 97 1009.5
20260509154301 54 168 3.0 5.0 0.07 0.12 0.12 97 1009.9
20260509153758 54 284 1.0 2.0 0.00 0.11 0.11 97 1009.7
20260509153254 54 278 4.0 5.0 0.00 0.11 0.11 96 1009.6
20260509152751 54 284 2.0 2.0 0.07 0.11 0.11 96 1009.7
20260509152247 54 305 2.0 2.0 0.07 0.11 0.11 96 1010.1
20260509151745 54 299 0.0 5.0 0.00 0.10 0.10 96 1009.7
20260509151241 54 279 2.0 2.0 0.00 0.10 0.10 96 1010.1
20260509150739 54 328 0.0 2.0 0.07 0.10 0.10 96 1010.0
20260509150238 54 309 2.0 2.0 0.07 0.10 0.10 96 1010.1
20260509145734 54 325 0.0 2.0 0.00 0.09 0.09 96 1010.1
20260509145228 53 324 0.0 2.0 0.05 0.09 0.09 96 1010.1
20260509144725 53 300 2.0 5.0 0.05 0.09 0.09 96 1010.2
20260509144222 53 271 0.0 5.0 0.05 0.09 0.09 96 1010.1
20260509143719 53 296 2.0 5.0 0.00 0.08 0.08 96 1010.1
20260509143217 53 262 3.0 5.0 0.00 0.08 0.08 96 1010.1
20260509142712 53 336 2.0 5.0 0.00 0.08 0.08 96 1009.9
20260509142209 53 202 2.0 2.0 0.07 0.08 0.08 97 1010.0
20260509141704 53 321 0.0 2.0 0.00 0.07 0.07 98 1009.9
20260509141202 53 306 0.0 2.0 0.00 0.07 0.07 98 1010.0
20260509140658 53 324 0.0 0.0 0.07 0.07 0.07 98 1010.1
20260509140156 53 326 0.0 2.0 0.07 0.06 0.06 98 1010.2
20260509135653 52 320 0.0 2.0 0.07 0.06 0.06 98 1010.1
20260509135151 52 330 0.0 0.0 0.00 0.04 0.04 98 1010.1
20260509134647 52 308 0.0 2.0 0.05 0.04 0.04 98 1010.3
20260509134145 52 329 0.0 2.0 0.05 0.04 0.04 98 1010.1
20260509133642 52 340 0.0 0.0 0.00 0.04 0.04 98 1010.1
20260509133139 52 330 0.0 2.0 0.00 0.04 0.04 99 1010.4
20260509132637 52 339 0.0 0.0 0.00 0.04 0.04 99 1010.1
20260509132135 52 25 1.0 2.0 0.07 0.04 0.04 99 1010.0
20260509131631 52 7 0.0 2.0 0.07 0.04 0.04 99 1010.0
20260509131128 51 351 0.0 2.0 0.00 0.02 0.02 99 1010.1
20260509130624 51 355 1.0 2.0 0.00 0.02 0.02 99 1010.3
20260509130121 51 336 0.0 2.0 0.00 0.02 0.02 99 1010.2
20260509125617 51 320 0.0 0.0 0.00 0.02 0.02 99 1010.3
20260509125114 51 330 0.0 0.0 0.00 0.02 0.02 99 1010.4
20260509124610 51 338 0.0 2.0 0.00 0.02 0.02 99 1010.3
20260509124108 51 312 0.0 2.0 0.00 0.02 0.02 99 1010.4
20260509123606 51 325 0.0 2.0 0.07 0.02 0.02 99 1010.4
20260509123102 51 325 0.0 0.0 0.00 0.01 0.01 99 1010.4
20260509122558 51 330 0.0 0.0 0.00 0.01 0.01 99 1010.2
20260509122056 51 326 0.0 0.0 0.00 0.01 0.01 99 1010.2
20260509121552 51 325 0.0 2.0 0.00 0.01 0.01 99 1010.2
20260509121049 51 325 0.0 2.0 0.00 0.01 0.01 99 1010.2
20260509120547 51 325 0.0 0.0 0.00 0.01 0.01 99 1010.3
20260509120046 51 321 0.0 2.0 0.00 0.01 0.01 99 1010.3
20260509115542 51 335 0.0 0.0 0.00 0.01 0.01 99 1010.3
20260509115040 51 331 0.0 0.0 0.00 0.01 0.01 99 1010.3
20260509114538 50 313 2.0 2.0 0.00 0.01 0.01 99 1010.2
20260509114037 51 325 0.0 0.0 0.00 0.01 0.01 99 1010.0
20260509113534 50 325 0.0 0.0 0.00 0.01 0.01 99 1010.0
20260509113032 50 325 0.0 0.0 0.00 0.01 0.01 99 1009.9
20260509112528 50 332 0.0 0.0 0.00 0.01 0.01 99 1010.2
20260509112025 50 332 0.0 0.0 0.00 0.01 0.01 99 1010.1
20260509111522 50 332 0.0 0.0 0.00 0.01 0.01 99 1010.2
20260509111019 50 328 0.0 0.0 0.00 0.01 0.01 99 1010.1
20260509110516 50 317 0.0 0.0 0.00 0.01 0.01 99 1010.3
20260509110013 50 340 0.0 0.0 0.00 0.01 0.01 99 1010.0
20260509105511 50 340 0.0 0.0 0.00 0.01 0.01 99 1010.0
20260509105009 50 319 0.0 0.0 0.07 0.01 0.01 99 1010.1
20260509104506 50 331 0.0 0.0 0.07 0.01 0.01 99 1010.0
20260509104003 50 332 0.0 2.0 0.00 0.00 0.00 99 1010.2
20260509103501 50 342 0.0 0.0 0.00 0.00 0.00 99 1010.0
20260509102959 51 319 4.0 7.0 0.00 0.00 0.00 99 1010.2
20260509102456 50 57 4.0 5.0 0.00 0.00 0.00 99 1009.7
20260509101952 50 338 0.0 0.0 0.00 0.00 0.00 99 1010.0
20260509101448 50 338 0.0 0.0 0.00 0.00 0.00 99 1009.7
20260509100945 50 338 0.0 0.0 0.00 0.00 0.00 99 1010.0
20260509100442 50 338 0.0 0.0 0.00 0.00 0.00 99 1010.0
20260509095939 50 338 0.0 0.0 0.00 0.00 0.00 99 1010.0
20260509095436 50 338 0.0 0.0 0.00 0.00 0.00 99 1010.1
20260509094933 50 338 0.0 0.0 0.00 0.00 0.00 99 1010.0
20260509094429 50 338 0.0 0.0 0.00 0.00 0.00 99 1010.0
20260509093927 50 341 0.0 0.0 0.00 0.00 0.00 99 1010.2
20260509093424 50 353 0.0 2.0 0.00 0.00 0.00 99 1010.1
20260509092923 50 353 0.0 2.0 0.00 0.00 0.00 99 1010.2
20260509092420 50 336 0.0 0.0 0.00 0.00 0.00 99 1010.3
20260509091919 50 336 0.0 0.0 0.00 0.00 0.00 99 1010.3
20260509091415 50 328 1.0 2.0 0.00 0.00 0.00 99 1010.5
20260509090912 50 329 0.0 0.0 0.00 0.00 0.00 99 1010.5
20260509090409 50 332 0.0 0.0 0.00 0.00 0.00 99 1010.5
20260509085907 50 332 0.0 0.0 0.00 0.00 0.00 99 1010.5
20260509085404 50 332 0.0 0.0 0.00 0.00 0.00 99 1010.5
20260509084900 50 332 0.0 0.0 0.00 0.00 0.00 99 1010.6
20260509084357 50 332 0.0 0.0 0.00 0.00 0.00 99 1010.3
20260509083855 50 347 0.0 0.0 0.00 0.00 0.00 99 1010.1
20260509083351 50 344 0.0 2.0 0.00 0.00 0.00 99 1010.4
20260509082848 50 332 0.0 0.0 0.00 0.00 0.00 99 1010.3
20260509082345 50 332 0.0 0.0 0.00 0.00 0.00 99 1010.3
20260509081842 50 332 0.0 0.0 0.00 0.00 0.00 99 1010.3
20260509081339 50 338 0.0 0.0 0.00 0.00 0.00 99 1010.3
20260509080837 50 351 3.0 5.0 0.00 0.00 0.00 98 1010.2
20260509080335 50 351 1.0 2.0 0.00 0.00 0.00 98 1010.3
20260509075833 51 354 1.0 2.0 0.00 0.00 0.00 98 1010.5
20260509075329 51 340 0.0 0.0 0.00 0.00 0.00 98 1010.7
20260509074827 51 343 0.0 0.0 0.00 0.00 0.00 98 1010.5
20260509074324 51 353 0.0 2.0 0.00 0.00 0.00 98 1010.6
20260509073820 51 347 0.0 2.0 0.00 0.00 0.00 98 1010.8
20260509073317 51 321 0.0 2.0 0.00 0.00 0.00 98 1010.7
20260509072814 51 342 0.0 0.0 0.00 0.00 0.00 98 1010.9
20260509072310 51 342 0.0 0.0 0.00 0.00 0.00 98 1010.8
20260509071807 51 353 0.0 2.0 0.00 0.00 0.00 98 1010.9
20260509071304 51 351 1.0 2.0 0.00 0.00 0.00 98 1010.8
20260509070801 51 341 0.0 0.0 0.00 0.00 0.00 98 1010.9
20260509070257 51 340 0.0 0.0 0.00 0.00 0.00 97 1010.8
20260509065754 51 340 0.0 0.0 0.00 0.00 0.00 97 1011.0
20260509065250 51 340 0.0 0.0 0.00 0.00 0.00 97 1011.1
20260509064746 51 340 0.0 0.0 0.00 0.00 0.00 97 1010.9
20260509064244 51 340 0.0 0.0 0.00 0.00 0.00 97 1010.9
20260509063741 52 343 0.0 0.0 0.00 0.00 0.00 97 1010.8
20260509063237 52 350 0.0 0.0 0.00 0.00 0.00 97 1011.0
20260509062735 52 334 0.0 0.0 0.00 0.00 0.00 97 1011.3
20260509062232 51 334 0.0 0.0 0.00 0.00 0.00 97 1011.2
20260509061729 51 334 0.0 0.0 0.00 0.00 0.00 97 1011.4
20260509061227 51 334 0.0 0.0 0.00 0.00 0.00 97 1011.5
20260509060724 52 334 0.0 0.0 0.00 0.00 0.00 97 1011.7
20260509060220 51 333 0.0 0.0 0.00 0.00 0.00 97 1011.6
20260509055716 51 333 0.0 0.0 0.00 0.00 0.00 97 1011.4
20260509055212 52 332 0.0 0.0 0.00 0.00 0.00 97 1011.6
20260509054708 52 330 0.0 0.0 0.00 0.00 0.00 97 1011.8
20260509054206 52 328 0.0 0.0 0.00 0.00 0.00 97 1011.7
20260509053704 52 330 0.0 0.0 0.00 0.00 0.00 97 1011.8
20260509053200 52 332 0.0 0.0 0.00 0.00 0.00 97 1011.7
20260509052659 52 333 0.0 0.0 0.00 0.00 0.00 97 1011.8
20260509052156 52 332 0.0 0.0 0.00 0.00 0.00 96 1011.9
20260509051654 52 332 0.0 0.0 0.00 0.00 0.00 96 1011.7
20260509051151 52 334 0.0 0.0 0.00 0.00 0.00 96 1012.1
20260509050648 52 334 0.0 0.0 0.00 0.00 0.00 96 1012.1
20260509050144 52 330 0.0 0.0 0.00 0.00 0.00 96 1012.2
20260509045642 52 330 0.0 0.0 0.00 0.00 0.00 96 1012.1
20260509045138 51 335 1.0 2.0 0.00 0.00 0.00 96 1012.1
20260509044636 51 333 0.0 0.0 0.00 0.00 0.00 96 1011.8
20260509044133 52 331 0.0 0.0 0.00 0.00 0.00 96 1012.0
20260509043629 52 337 0.0 0.0 0.00 0.00 0.00 97 1012.0
20260509043125 52 337 0.0 0.0 0.00 0.00 0.00 97 1012.0
20260509042622 52 337 0.0 0.0 0.00 0.00 0.00 97 1011.7
20260509042117 52 337 0.0 0.0 0.00 0.00 0.00 97 1011.4
20260509041615 52 337 0.0 0.0 0.00 0.00 0.00 97 1011.4
20260509041112 52 337 0.0 0.0 0.00 0.00 0.00 97 1011.2
20260509040611 52 341 0.0 0.0 0.00 0.00 0.00 96 1011.4
20260509040107 52 338 0.0 0.0 0.00 0.04 0.04 96 1011.7
20260509035603 52 328 0.0 0.0 0.00 0.04 0.04 96 1011.5
20260509035100 52 336 0.0 0.0 0.00 0.04 0.04 96 1011.6
20260509034558 53 328 0.0 0.0 0.00 0.04 0.04 96 1011.7
20260509034055 53 6 0.0 2.0 0.00 0.04 0.04 96 1011.7
20260509033552 53 334 0.0 0.0 0.00 0.04 0.04 95 1011.6
20260509033049 53 334 0.0 0.0 0.00 0.04 0.04 95 1011.9
20260509032547 52 334 0.0 0.0 0.00 0.04 0.04 95 1011.9
20260509032043 53 331 0.0 0.0 0.00 0.04 0.04 94 1011.9
20260509031541 53 331 0.0 0.0 0.00 0.04 0.04 94 1011.8
20260509031038 53 335 0.0 0.0 0.00 0.04 0.04 93 1011.9
20260509030536 53 333 0.0 0.0 0.00 0.04 0.04 93 1011.9
20260509030033 53 342 0.0 0.0 0.00 0.04 0.04 93 1011.9
20260509025529 53 331 0.0 0.0 0.00 0.04 0.04 93 1011.9
20260509025025 53 336 0.0 0.0 0.00 0.04 0.04 92 1011.7
20260509024520 53 328 0.0 0.0 0.00 0.04 0.04 92 1011.8
20260509024017 53 336 0.0 0.0 0.00 0.04 0.04 91 1011.8
20260509023515 53 328 0.0 0.0 0.00 0.04 0.04 91 1011.9
20260509023011 53 331 0.0 0.0 0.00 0.04 0.04 90 1012.0
20260509022508 54 333 0.0 0.0 0.00 0.04 0.04 88 1012.0
20260509022006 54 331 0.0 0.0 0.00 0.04 0.04 87 1012.2
20260509021502 54 331 0.0 0.0 0.05 0.04 0.04 86 1012.0
20260509020959 54 332 0.0 0.0 0.05 0.04 0.04 84 1012.1
20260509020458 54 330 0.0 0.0 0.00 0.04 0.04 82 1012.1
20260509015954 54 328 0.0 0.0 0.00 0.04 0.04 82 1011.9
20260509015453 54 327 0.0 0.0 0.00 0.04 0.04 82 1011.7
20260509014950 54 326 0.0 0.0 0.00 0.04 0.04 82 1011.9
20260509014447 54 332 0.0 0.0 0.00 0.04 0.04 82 1011.7
20260509013937 54 319 0.0 2.0 0.00 0.04 0.04 82 1011.5
20260509013434 54 330 0.0 0.0 0.00 0.04 0.04 82 1011.6
20260509012930 54 328 0.0 0.0 0.00 0.04 0.04 81 1011.5
20260509012426 54 328 0.0 0.0 0.00 0.04 0.04 81 1011.6
20260509011923 54 328 0.0 0.0 0.00 0.04 0.04 80 1011.5
20260509011421 55 320 0.0 0.0 0.00 0.04 0.04 80 1011.6
20260509010919 55 328 0.0 0.0 0.00 0.04 0.04 80 1011.5
20260509010416 55 326 0.0 0.0 0.00 0.04 0.04 79 1011.4
20260509005912 55 325 0.0 0.0 0.00 0.04 0.04 79 1011.2
20260509005411 55 307 1.0 2.0 0.00 0.04 0.04 78 1011.3
20260509004911 55 314 0.0 0.0 0.00 0.04 0.04 77 1011.3
20260509004407 56 327 0.0 0.0 0.00 0.04 0.04 78 1011.3
20260509003905 55 317 0.0 2.0 0.00 0.04 0.04 78 1011.4
20260509003403 55 325 0.0 0.0 0.00 0.04 0.04 80 1011.3
20260509002859 55 325 0.0 0.0 0.00 0.04 0.04 80 1011.2
20260509002357 55 334 0.0 0.0 0.00 0.04 0.04 81 1011.3
20260509001855 55 334 0.0 0.0 0.00 0.04 0.04 80 1011.1
20260509001350 56 336 0.0 0.0 0.00 0.04 0.04 81 1011.1
20260509000848 56 314 1.0 2.0 0.00 0.04 0.04 81 1011.0
20260509000348 56 334 0.0 0.0 0.00 0.04 0.04 80 1011.1
20260508235842 56 334 0.0 0.0 0.00 0.04 0.04 80 1010.9
20260508235339 56 315 0.0 2.0 0.00 0.04 0.04 80 1011.2
20260508234836 56 327 0.0 0.0 0.00 0.04 0.04 80 1011.1
20260508234332 56 327 0.0 0.0 0.00 0.04 0.04 80 1011.1
20260508233831 56 337 0.0 0.0 0.00 0.04 0.04 81 1010.8
20260508233330 56 332 0.0 2.0 0.00 0.04 0.04 81 1010.7
20260508232826 56 336 0.0 0.0 0.00 0.04 0.04 81 1010.6
20260508232322 56 335 0.0 0.0 0.00 0.04 0.04 81 1010.4
20260508231821 56 353 0.0 2.0 0.00 0.04 0.04 80 1010.4
20260508231317 56 8 2.0 5.0 0.00 0.04 0.04 78 1010.4
20260508230814 57 17 4.0 5.0 0.00 0.04 0.04 77 1010.5
20260508230310 57 346 1.0 5.0 0.00 0.04 0.04 77 1010.5
20260508225808 57 5 2.0 2.0 0.00 0.04 0.04 74 1010.7
20260508225306 57 334 0.0 0.0 0.00 0.04 0.04 73 1010.6
20260508224802 57 337 0.0 5.0 0.00 0.04 0.04 72 1010.6
20260508224300 57 312 2.0 5.0 0.00 0.04 0.04 72 1010.7
20260508223757 57 273 3.0 5.0 0.00 0.04 0.04 70 1010.8
20260508223255 57 324 0.0 2.0 0.00 0.04 0.04 75 1010.7